| time (UTC) | temp F | wind direction | speed MPH | gust MPH | rain 1hr in | rain 24hr in | rain mn in | humidity % | barometer mb |
| 20260507012703 | 63 | 300 | 9.0 | 13.0 | 0.00 | 0.09 | 0.09 | 27 | 1021.3 |
| 20260507011803 | 63 | 284 | 8.0 | 14.0 | 0.00 | 0.09 | 0.09 | 27 | 1021.3 |
| 20260507010903 | 63 | 287 | 9.0 | 16.0 | 0.00 | 0.09 | 0.09 | 27 | 1021.4 |
| 20260507010003 | 63 | 288 | 10.0 | 16.0 | 0.00 | 0.09 | 0.09 | 26 | 1021.4 |
| 20260507005424 | 63 | 298 | 11.0 | 18.0 | 0.00 | 0.09 | 0.09 | 27 | 1021.3 |
| 20260507004524 | 63 | 291 | 10.0 | 18.0 | 0.00 | 0.09 | 0.09 | 25 | 1021.3 |
| 20260507003603 | 64 | 301 | 12.0 | 20.0 | 0.00 | 0.09 | 0.09 | 26 | 1021.3 |
| 20260507002703 | 64 | 297 | 12.0 | 20.0 | 0.00 | 0.09 | 0.09 | 26 | 1021.3 |
| 20260507001803 | 64 | 294 | 11.0 | 16.0 | 0.00 | 0.09 | 0.09 | 26 | 1021.3 |
| 20260507000903 | 64 | 297 | 11.0 | 16.0 | 0.00 | 0.09 | 0.09 | 28 | 1021.3 |
| 20260507000003 | 63 | 285 | 12.0 | 22.0 | 0.00 | 0.09 | 0.09 | 27 | 1021.2 |
| 20260506235403 | 64 | 296 | 11.0 | 19.0 | 0.00 | 0.09 | 0.09 | 27 | 1021.1 |
| 20260506234503 | 63 | 289 | 11.0 | 19.0 | 0.00 | 0.09 | 0.09 | 28 | 1021.1 |
| 20260506233624 | 63 | 286 | 13.0 | 24.0 | 0.00 | 0.09 | 0.09 | 28 | 1021.1 |
| 20260506232724 | 63 | 267 | 12.0 | 24.0 | 0.00 | 0.09 | 0.09 | 27 | 1021.1 |
| 20260506231803 | 63 | 283 | 15.0 | 24.0 | 0.00 | 0.09 | 0.09 | 28 | 1021.1 |
| 20260506230903 | 63 | 272 | 13.0 | 38.0 | 0.00 | 0.09 | 0.09 | 29 | 1021.1 |
| 20260506230003 | 62 | 268 | 15.0 | 38.0 | 0.00 | 0.09 | 0.09 | 29 | 1021.0 |
| 20260506225424 | 62 | 278 | 17.0 | 38.0 | 0.00 | 0.09 | 0.09 | 29 | 1021.0 |
| 20260506224503 | 62 | 279 | 15.0 | 28.0 | 0.00 | 0.09 | 0.09 | 29 | 1021.1 |
| 20260506223603 | 62 | 271 | 16.0 | 27.0 | 0.00 | 0.09 | 0.09 | 29 | 1021.1 |
| 20260506222703 | 63 | 283 | 17.0 | 27.0 | 0.00 | 0.09 | 0.09 | 29 | 1021.2 |
| 20260506221803 | 62 | 264 | 15.0 | 28.0 | 0.00 | 0.09 | 0.09 | 29 | 1021.2 |
| 20260506220903 | 62 | 276 | 17.0 | 28.0 | 0.00 | 0.09 | 0.09 | 29 | 1021.3 |
| 20260506220003 | 62 | 275 | 15.0 | 27.0 | 0.00 | 0.09 | 0.09 | 29 | 1021.2 |
| 20260506215403 | 62 | 271 | 17.0 | 27.0 | 0.00 | 0.09 | 0.09 | 28 | 1021.4 |
| 20260506214503 | 62 | 280 | 18.0 | 27.0 | 0.00 | 0.09 | 0.09 | 30 | 1021.4 |
| 20260506213603 | 61 | 277 | 17.0 | 26.0 | 0.00 | 0.09 | 0.09 | 29 | 1021.3 |
| 20260506212703 | 62 | 275 | 17.0 | 29.0 | 0.00 | 0.09 | 0.09 | 30 | 1021.3 |
| 20260506211803 | 61 | 270 | 17.0 | 29.0 | 0.00 | 0.09 | 0.09 | 28 | 1021.5 |
| 20260506210903 | 60 | 267 | 18.0 | 30.0 | 0.00 | 0.09 | 0.09 | 28 | 1021.2 |
| 20260506210003 | 61 | 274 | 20.0 | 31.0 | 0.00 | 0.09 | 0.09 | 29 | 1021.2 |
| 20260506205403 | 61 | 275 | 22.0 | 31.0 | 0.00 | 0.09 | 0.09 | 30 | 1021.1 |
| 20260506204503 | 61 | 287 | 21.0 | 30.0 | 0.00 | 0.09 | 0.09 | 29 | 1021.2 |
| 20260506203624 | 61 | 283 | 21.0 | 31.0 | 0.00 | 0.09 | 0.09 | 29 | 1021.2 |
| 20260506202724 | 60 | 268 | 20.0 | 31.0 | 0.00 | 0.09 | 0.09 | 27 | 1021.3 |
| 20260506201824 | 60 | 276 | 19.0 | 31.0 | 0.00 | 0.09 | 0.09 | 28 | 1021.2 |
| 20260506200903 | 60 | 281 | 18.0 | 31.0 | 0.00 | 0.09 | 0.09 | 28 | 1021.2 |
| 20260506200003 | 59 | 272 | 21.0 | 31.0 | 0.00 | 0.09 | 0.09 | 28 | 1021.3 |
| 20260506195403 | 60 | 285 | 18.0 | 30.0 | 0.00 | 0.09 | 0.09 | 27 | 1021.4 |
| 20260506194524 | 60 | 288 | 17.0 | 27.0 | 0.00 | 0.09 | 0.09 | 30 | 1021.5 |
| 20260506193603 | 59 | 280 | 18.0 | 27.0 | 0.00 | 0.09 | 0.09 | 29 | 1021.4 |
| 20260506192703 | 59 | 291 | 16.0 | 28.0 | 0.00 | 0.09 | 0.09 | 29 | 1021.4 |
| 20260506191803 | 59 | 282 | 17.0 | 25.0 | 0.00 | 0.09 | 0.09 | 29 | 1021.4 |
| 20260506190903 | 58 | 290 | 17.0 | 27.0 | 0.00 | 0.09 | 0.09 | 30 | 1021.4 |
| 20260506190024 | 59 | 286 | 17.0 | 26.0 | 0.00 | 0.09 | 0.09 | 30 | 1021.3 |
| 20260506185403 | 58 | 288 | 15.0 | 26.0 | 0.00 | 0.09 | 0.09 | 29 | 1021.4 |
| 20260506184503 | 57 | 284 | 15.0 | 27.0 | 0.00 | 0.09 | 0.09 | 30 | 1021.4 |
| 20260506183603 | 56 | 278 | 18.0 | 28.0 | 0.00 | 0.09 | 0.09 | 30 | 1021.5 |
| 20260506182703 | 56 | 271 | 19.0 | 28.0 | 0.00 | 0.09 | 0.09 | 30 | 1021.6 |
| 20260506181803 | 56 | 275 | 18.0 | 28.0 | 0.00 | 0.09 | 0.09 | 32 | 1021.6 |
| 20260506180903 | 56 | 280 | 18.0 | 29.0 | 0.00 | 0.09 | 0.09 | 33 | 1021.4 |
| 20260506180003 | 55 | 279 | 17.0 | 29.0 | 0.00 | 0.09 | 0.09 | 31 | 1021.4 |
| 20260506175403 | 55 | 286 | 16.0 | 27.0 | 0.00 | 0.09 | 0.09 | 32 | 1021.3 |
| 20260506174524 | 55 | 283 | 20.0 | 30.0 | 0.00 | 0.09 | 0.09 | 33 | 1021.2 |
| 20260506173624 | 55 | 284 | 18.0 | 31.0 | 0.00 | 0.09 | 0.09 | 31 | 1021.3 |
| 20260506172703 | 54 | 276 | 20.0 | 30.0 | 0.00 | 0.09 | 0.09 | 31 | 1021.1 |
| 20260506171803 | 54 | 279 | 19.0 | 29.0 | 0.00 | 0.09 | 0.09 | 32 | 1020.9 |
| 20260506170903 | 54 | 285 | 19.0 | 32.0 | 0.00 | 0.09 | 0.09 | 32 | 1020.8 |
| 20260506170003 | 54 | 296 | 19.0 | 32.0 | 0.00 | 0.09 | 0.09 | 34 | 1020.6 |
| 20260506165403 | 54 | 293 | 19.0 | 29.0 | 0.00 | 0.09 | 0.09 | 38 | 1020.6 |
| 20260506164503 | 54 | 302 | 19.0 | 26.0 | 0.00 | 0.09 | 0.09 | 39 | 1020.5 |
| 20260506163624 | 53 | 290 | 17.0 | 31.0 | 0.00 | 0.09 | 0.09 | 39 | 1020.4 |
| 20260506162703 | 53 | 279 | 17.0 | 31.0 | 0.00 | 0.09 | 0.09 | 40 | 1020.3 |
| 20260506161803 | 52 | 287 | 17.0 | 31.0 | 0.00 | 0.09 | 0.09 | 41 | 1020.1 |
| 20260506160903 | 52 | 296 | 19.0 | 27.0 | 0.00 | 0.09 | 0.09 | 43 | 1020.0 |
| 20260506160025 | 52 | 280 | 19.0 | 29.0 | 0.00 | 0.09 | 0.09 | 43 | 1020.0 |
| 20260506155403 | 52 | 276 | 17.0 | 29.0 | 0.00 | 0.09 | 0.09 | 42 | 1019.9 |
| 20260506154503 | 52 | 293 | 16.0 | 25.0 | 0.00 | 0.09 | 0.09 | 49 | 1019.9 |
| 20260506153603 | 52 | 295 | 15.0 | 23.0 | 0.00 | 0.09 | 0.09 | 50 | 1019.7 |
| 20260506152724 | 52 | 293 | 15.0 | 23.0 | 0.00 | 0.09 | 0.09 | 50 | 1019.7 |
| 20260506151803 | 51 | 294 | 15.0 | 23.0 | 0.00 | 0.09 | 0.09 | 50 | 1019.5 |
| 20260506150924 | 51 | 292 | 15.0 | 25.0 | 0.00 | 0.09 | 0.09 | 51 | 1019.4 |
| 20260506150003 | 51 | 293 | 13.0 | 20.0 | 0.00 | 0.09 | 0.09 | 53 | 1019.4 |
| 20260506145403 | 50 | 284 | 8.0 | 16.0 | 0.00 | 0.09 | 0.09 | 54 | 1019.4 |
| 20260506144524 | 50 | 291 | 9.0 | 16.0 | 0.00 | 0.09 | 0.09 | 55 | 1019.2 |
| 20260506143603 | 49 | 282 | 9.0 | 16.0 | 0.00 | 0.09 | 0.09 | 55 | 1019.2 |
| 20260506142703 | 48 | 281 | 9.0 | 15.0 | 0.00 | 0.09 | 0.09 | 55 | 1019.2 |
| 20260506141803 | 48 | 280 | 11.0 | 16.0 | 0.00 | 0.09 | 0.09 | 55 | 1019.2 |
| 20260506140903 | 47 | 274 | 8.0 | 14.0 | 0.00 | 0.09 | 0.09 | 55 | 1019.1 |
| 20260506140003 | 47 | 270 | 8.0 | 11.0 | 0.00 | 0.09 | 0.09 | 55 | 1019.1 |
| 20260506135403 | 46 | 269 | 8.0 | 11.0 | 0.00 | 0.09 | 0.09 | 55 | 1019.0 |
| 20260506134503 | 46 | 271 | 6.0 | 11.0 | 0.00 | 0.09 | 0.09 | 55 | 1018.9 |
| 20260506133603 | 45 | 248 | 5.0 | 8.0 | 0.00 | 0.09 | 0.09 | 54 | 1018.9 |
| 20260506132703 | 44 | 259 | 1.0 | 6.0 | 0.00 | 0.09 | 0.09 | 52 | 1018.7 |
| 20260506131803 | 43 | 275 | 1.0 | 6.0 | 0.00 | 0.09 | 0.09 | 52 | 1018.5 |
| 20260506130903 | 43 | 260 | 3.0 | 7.0 | 0.00 | 0.09 | 0.09 | 52 | 1018.4 |
| 20260506130003 | 42 | 262 | 2.0 | 7.0 | 0.00 | 0.09 | 0.09 | 52 | 1018.3 |
| 20260506125403 | 42 | 221 | 0.0 | 4.0 | 0.00 | 0.09 | 0.09 | 52 | 1018.1 |
| 20260506124503 | 42 | 0 | 0.0 | 6.0 | 0.00 | 0.09 | 0.09 | 52 | 1018.0 |
| 20260506123603 | 42 | 194 | 1.0 | 6.0 | 0.00 | 0.09 | 0.09 | 52 | 1018.0 |
| 20260506122703 | 42 | 211 | 2.0 | 7.0 | 0.00 | 0.09 | 0.09 | 52 | 1017.8 |
| 20260506121803 | 43 | 269 | 2.0 | 6.0 | 0.00 | 0.09 | 0.09 | 52 | 1017.9 |
| 20260506120903 | 43 | 293 | 2.0 | 9.0 | 0.00 | 0.09 | 0.09 | 52 | 1017.8 |
| 20260506120003 | 43 | 288 | 5.0 | 9.0 | 0.00 | 0.09 | 0.09 | 52 | 1017.6 |
| 20260506115403 | 43 | 289 | 7.0 | 13.0 | 0.00 | 0.09 | 0.09 | 52 | 1017.6 |
| 20260506114524 | 43 | 298 | 8.0 | 13.0 | 0.00 | 0.09 | 0.09 | 52 | 1017.5 |
| 20260506113603 | 44 | 291 | 10.0 | 24.0 | 0.00 | 0.09 | 0.09 | 52 | 1017.6 |
| 20260506112724 | 44 | 278 | 12.0 | 24.0 | 0.00 | 0.09 | 0.09 | 51 | 1017.4 |
| 20260506111824 | 44 | 285 | 13.0 | 20.0 | 0.00 | 0.09 | 0.09 | 50 | 1017.3 |
| 20260506110924 | 44 | 283 | 15.0 | 27.0 | 0.00 | 0.09 | 0.09 | 48 | 1017.2 |
| 20260506110003 | 43 | 283 | 15.0 | 27.0 | 0.00 | 0.09 | 0.09 | 47 | 1016.8 |
| 20260506105403 | 44 | 277 | 20.0 | 29.0 | 0.00 | 0.09 | 0.09 | 46 | 1016.7 |
| 20260506104524 | 43 | 278 | 16.0 | 28.0 | 0.00 | 0.09 | 0.09 | 42 | 1016.5 |
| 20260506103624 | 44 | 281 | 12.0 | 23.0 | 0.00 | 0.09 | 0.09 | 40 | 1016.5 |
| 20260506102703 | 44 | 271 | 15.0 | 24.0 | 0.01 | 0.09 | 0.09 | 39 | 1016.4 |
| 20260506101803 | 44 | 275 | 9.0 | 22.0 | 0.06 | 0.09 | 0.09 | 38 | 1016.3 |
| 20260506100903 | 44 | 286 | 8.0 | 14.0 | 0.08 | 0.09 | 0.09 | 39 | 1016.2 |
| 20260506100003 | 44 | 276 | 9.0 | 18.0 | 0.08 | 0.09 | 0.09 | 39 | 1016.1 |
| 20260506095403 | 45 | 256 | 9.0 | 18.0 | 0.09 | 0.09 | 0.09 | 40 | 1015.9 |
| 20260506094503 | 45 | 277 | 12.0 | 20.0 | 0.09 | 0.09 | 0.09 | 41 | 1015.6 |
| 20260506093603 | 46 | 281 | 5.0 | 10.0 | 0.09 | 0.09 | 0.09 | 41 | 1015.6 |
| 20260506092724 | 47 | 311 | 10.0 | 26.0 | 0.08 | 0.08 | 0.08 | 42 | 1015.5 |
| 20260506091824 | 47 | 305 | 14.0 | 26.0 | 0.03 | 0.03 | 0.04 | 45 | 1015.6 |
| 20260506090903 | 47 | 265 | 16.0 | 27.0 | 0.01 | 0.01 | 0.01 | 48 | 1015.5 |
| 20260506090003 | 49 | 231 | 13.0 | 25.0 | 0.01 | 0.01 | 0.01 | 51 | 1015.0 |
| 20260506085403 | 50 | 220 | 12.0 | 20.0 | 0.00 | 0.00 | 0.00 | 52 | 1014.5 |
| 20260506084503 | 50 | 200 | 8.0 | 14.0 | 0.00 | 0.00 | 0.00 | 53 | 1013.8 |
| 20260506083603 | 50 | 191 | 5.0 | 9.0 | 0.00 | 0.00 | 0.00 | 55 | 1013.7 |
| 20260506082703 | 50 | 195 | 5.0 | 10.0 | 0.00 | 0.00 | 0.00 | 56 | 1013.6 |
| 20260506081803 | 51 | 191 | 6.0 | 11.0 | 0.00 | 0.00 | 0.00 | 57 | 1013.7 |
| 20260506080924 | 52 | 169 | 6.0 | 11.0 | 0.00 | 0.00 | 0.00 | 57 | 1013.7 |
| 20260506072703 | 52 | 297 | 2.0 | 5.0 | 0.00 | 0.00 | 0.00 | 55 | 1014.0 |
| 20260506071824 | 52 | 316 | 2.0 | 6.0 | 0.00 | 0.00 | 0.00 | 55 | 1014.0 |
| 20260506070924 | 51 | 293 | 3.0 | 9.0 | 0.00 | 0.00 | 0.00 | 54 | 1013.9 |
| 20260506061824 | 49 | 115 | 3.0 | 5.0 | 0.00 | 0.00 | 0.00 | 52 | 1013.4 |
| 20260506060903 | 48 | 113 | 1.0 | 4.0 | 0.00 | 0.00 | 0.00 | 52 | 1013.3 |
| 20260506050903 | 48 | 112 | 2.0 | 5.0 | 0.00 | 0.00 | 0.00 | 55 | 1012.6 |
| 20260506044503 | 49 | 92 | 3.0 | 5.0 | 0.00 | 0.00 | 0.00 | 56 | 1012.4 |
| 20260506043624 | 50 | 114 | 4.0 | 5.0 | 0.00 | 0.00 | 0.00 | 56 | 1012.4 |
| 20260506042703 | 50 | 119 | 3.0 | 5.0 | 0.00 | 0.00 | 0.00 | 56 | 1012.5 |
| 20260506041803 | 50 | 120 | 2.0 | 6.0 | 0.00 | 0.00 | 0.00 | 57 | 1012.4 |
| 20260506040903 | 50 | 119 | 3.0 | 6.0 | 0.00 | 0.00 | 0.00 | 57 | 1012.4 |
| 20260506040003 | 50 | 99 | 2.0 | 5.0 | 0.00 | 0.00 | 0.00 | 58 | 1012.5 |
| 20260506035424 | 51 | 51 | 2.0 | 5.0 | 0.00 | 0.00 | 0.00 | 58 | 1012.4 |
| 20260506034503 | 51 | 52 | 4.0 | 5.0 | 0.00 | 0.00 | 0.00 | 58 | 1012.3 |
| 20260506033603 | 52 | 51 | 4.0 | 5.0 | 0.00 | 0.00 | 0.00 | 58 | 1012.2 |
| 20260506032703 | 52 | 51 | 3.0 | 5.0 | 0.00 | 0.00 | 0.00 | 58 | 1012.2 |
| 20260506031803 | 53 | 51 | 3.0 | 5.0 | 0.00 | 0.00 | 0.00 | 58 | 1012.1 |
| 20260506030903 | 53 | 51 | 4.0 | 5.0 | 0.00 | 0.00 | 0.00 | 57 | 1012.0 |
| 20260506030003 | 53 | 87 | 3.0 | 5.0 | 0.00 | 0.00 | 0.00 | 58 | 1011.9 |
| 20260506025424 | 53 | 97 | 2.0 | 4.0 | 0.00 | 0.00 | 0.00 | 58 | 1011.9 |
| 20260506024503 | 54 | 97 | 1.0 | 4.0 | 0.00 | 0.00 | 0.00 | 57 | 1011.9 |
| 20260506023603 | 54 | 97 | 1.0 | 7.0 | 0.00 | 0.00 | 0.00 | 56 | 1011.8 |
| 20260506022703 | 55 | 98 | 3.0 | 7.0 | 0.00 | 0.00 | 0.00 | 56 | 1011.7 |
| 20260506021803 | 56 | 99 | 4.0 | 7.0 | 0.00 | 0.00 | 0.00 | 55 | 1011.6 |
| 20260506020903 | 56 | 101 | 4.0 | 7.0 | 0.00 | 0.00 | 0.00 | 54 | 1011.5 |
| 20260506020003 | 57 | 113 | 5.0 | 9.0 | 0.00 | 0.00 | 0.00 | 53 | 1011.4 |
| 20260506015403 | 57 | 117 | 4.0 | 9.0 | 0.00 | 0.00 | 0.00 | 52 | 1011.4 |
| 20260506014503 | 58 | 117 | 4.0 | 9.0 | 0.00 | 0.00 | 0.00 | 51 | 1011.5 |
| 20260506013603 | 58 | 98 | 5.0 | 9.0 | 0.00 | 0.00 | 0.00 | 50 | 1011.3 |